Location: *
(55.6387°N, 38.1750°E)
Time: 03:26:49
(UTC+00:00)

Daily predictions for brighter satellites

Satellite Brightness Start Highest point End
(mag) Time Altitude Azimuth Time Altitude Azimuth Time Altitude Azimuth
Unknown 4.5 00:00:43 10° SW 00:04:31 35° SSE 00:08:20 10° E
Cosmos 1340 2.7 00:00:53 10° SSW 00:04:40 87° E 00:08:28 10° NNE
Unknown 4.4 00:02:22 10° SW 00:06:11 36° SSE 00:10:00 10° E
SL-4 R/B 3.0 00:02:33 10° W 00:06:35 30° SSW 00:10:24 10° SSE
Unknown 4.4 00:04:09 10° SW 00:08:00 38° SSE 00:11:52 10° E
Unknown 4.4 00:05:38 10° SW 00:09:28 37° SSE 00:13:19 10° E
SL-16 R/B 3.9 00:05:15 10° W 00:10:02 27° NNW 00:14:52 10° NNE
Unknown 4.4 00:07:17 10° SW 00:11:08 38° SSE 00:15:00 10° E
Okean 2 4.2 00:08:44 10° NNW 00:12:35 36° W 00:16:25 10° SSW
FALCON 9 DEB 3.5 00:10:14 10° WSW 00:13:33 46° SSE 00:16:53 10° E
Unknown 4.1 00:10:19 10° SW 00:14:00 41° SSE 00:17:42 10° E
Unknown 4.3 00:10:35 10° SW 00:14:27 39° SSE 00:18:20 10° E
Cosmos 2112 Rocket 4.1 00:10:41 10° NNW 00:15:59 63° WSW 00:21:13 10° S
Unknown 4.3 00:12:13 10° SW 00:16:05 39° SSE 00:19:59 10° E
Unknown 4.3 00:13:52 10° SW 00:17:46 40° SSE 00:21:40 10° E
SJ 16-02 3.4 00:15:23 10° SSE 00:18:50 23° E 00:22:19 10° NE
Unknown 4.3 00:15:30 10° SW 00:19:24 40° SSE 00:23:18 10° E
Nadezhda 1 Rocket 4.2 00:13:32 10° SSW 00:19:56 72° WNW 00:26:19 10° N
Unknown 4.3 00:17:09 10° SW 00:21:03 41° SSE 00:24:59 10° E
